Weather in Dalaman

Turkey     36°45′56″N   28°48′25″E
temp.,
°C
wind,
m/s
gust,
m/s
humid.,
%
clouds,
%
prec.,
mm/h
press.,
hPa
HPBL,
m
9 may, sun
sun900:00+18n32660 0.0 101122
03:00+18n33550 0.0 101126
06:00+17n22500 0.0 101033
09:00+25nw23375 0.0 1011383
12:00+27wsw543632 0.0 1010966
15:00+29sw44345 0.0 10091195
18:00+25ese43505 0.0 1009282
21:00+22n22475 0.0 101019
10 may, mon
mon1000:00+20n45350 0.0 101155
03:00+18nne44354 0.0 101152
06:00+17nne44350 0.0 101268
09:00+24ene23280 0.0 1013412
12:00+25s43350 0.0 1012847
15:00+24s43410 0.0 1011514
18:00+23s32480 0.0 1011393
21:00+18ese11700 0.0 101112
11 may, tue
tue1100:00+17nne22660 0.0 101132
03:00+17n22480 0.0 100929
06:00+17n22380 0.0 100927
09:00+23ssw11300 0.0 1010263
12:00+24ssw33325 0.0 1010604
15:00+24s34395 0.0 1010607
18:00+22sw33485 0.0 1010369
21:00+17wsw01774 0.0 101032
12 may, wed
wed1200:00+16nne22720 0.0 101037
03:00+16nw11630 0.0 100839
06:00+16nnw11640 0.0 100947
09:00+21s114536 0.0 1010311
12:00+23ssw43480 0.0 1010661
15:00+23sw444726 0.0 1011625
18:00+21sw33625 0.0 1011391
21:00+17wnw11782 0.0 101143
13 may, thu
thu1300:00+16nne11760 0.0 101231
03:00+15nne22740 0.0 101138
06:00+15nne22660 0.0 101138
09:00+23sw11380 0.0 1012290
12:00+23ssw44400 0.0 1012592
15:00+23s44475 0.0 1013628
18:00+22s335126 0.0 1012432
21:00+17ene00762 0.0 101311